Wind_Speed
8 8 7 8 8 9 9 9 9 10 11 11 11 10 9 9 9 10 10 10 11 11 11 11 10 11 12 13 13 14 15 15 15 15 15 16 16 17 17 17 18 18 18 18
8 7 7 8 8 8 9 9 9 8 10 10 11 10 9 9 9 10 10 10 11 11 12 11 11 11 12 13 13 14 15 15 16 16 16 17 17 18 18 18 18 19 19 19
7 7 7 7 7 8 8 8 9 10 9 9 10 10 10 10 11 11 11 11 11 12 12 13 12 11 12 13 14 15 16 16 16 17 17 18 18 19 19 19 18 19 19 19
6 7 7 7 7 7 7 7 9 9 9 9 10 11 10 11 11 12 12 12 12 13 13 13 13 13 13 14 15 16 17 17 18 19 19 19 20 20 20 20 19 19 20 19
6 7 7 8 8 8 8 8 8 8 8 9 9 12 10 11 12 13 12 13 13 13 14 13 14 15 15 16 17 17 18 19 19 19 20 20 21 21 20 20 20 20 20 20
6 7 7 8 8 9 8 8 8 8 8 9 10 12 12 12 12 13 14 14 13 14 15 15 15 16 16 17 18 19 19 20 21 21 21 22 22 21 21 20 20 20 20 20
7 8 9 8 9 10 9 8 8 8 9 10 12 12 12 13 13 14 15 15 14 14 15 15 16 17 18 19 19 20 20 21 22 22 22 22 22 21 21 21 21 21 21 21
9 8 9 10 10 10 10 9 8 9 10 11 11 13 13 13 14 16 16 16 16 17 16 17 18 19 20 20 21 21 21 22 23 23 22 22 22 21 21 22 22 21 21 21
10 10 10 11 10 10 10 9 8 11 10 11 12 13 15 15 15 16 17 17 18 17 18 18 18 19 20 21 21 22 22 23 23 23 23 22 22 22 22 22 23 23 23 22
11 11 11 11 11 10 10 9 10 11 12 12 13 14 14 16 17 17 18 18 18 18 19 19 19 20 21 21 22 23 23 24 24 23 23 23 23 23 23 22 22 22 23 23
11 11 11 13 12 11 11 11 11 11 12 13 14 15 15 17 19 20 20 19 19 19 20 21 21 21 22 22 23 24 24 24 24 24 24 24 24 24 23 23 23 23 23 23
12 12 13 13 14 13 13 13 12 12 12 14 16 17 16 19 20 20 21 21 21 21 21 22 22 22 22 23 23 23 24 24 25 25 25 24 24 24 24 23 23 23 23 23
12 13 14 14 14 14 14 14 14 14 15 15 17 17 17 19 20 20 21 21 22 23 23 23 23 23 23 23 23 23 23 23 24 24 25 25 24 24 24 24 24 24 24 24
13 14 14 15 15 15 16 16 15 16 18 18 19 20 20 20 21 21 22 22 23 24 24 24 24 24 24 23 23 23 23 24 24 24 24 24 24 24 24 25 25 25 25 25
14 14 15 15 15 16 18 18 18 19 20 20 21 21 22 22 23 23 24 24 24 24 24 24 24 24 24 24 24 24 24 25 25 25 25 25 24 24 25 25 25 25 26 26
15 15 16 16 17 17 18 18 19 20 20 21 23 24 23 23 23 24 25 25 25 25 25 25 25 24 24 25 25 25 25 25 25 25 25 26 25 25 26 27 27 27 27 27
16 17 17 17 18 19 19 19 20 20 21 22 23 24 24 24 25 25 25 24 25 25 25 25 25 25 24 25 25 25 25 26 26 26 26 26 26 27 28 28 28 28 28 28
17 18 18 18 19 20 19 20 21 22 22 23 23 24 24 24 25 25 25 24 25 25 24 24 24 24 25 26 26 27 27 27 27 27 27 27 28 28 28 28 27 28 28 28
17 18 19 19 20 21 20 21 22 23 23 23 23 23 24 24 25 25 24 24 25 25 25 26 26 26 25 26 26 27 27 28 28 28 28 28 27 27 27 27 27 27 27 27
18 19 19 20 21 22 22 22 22 23 24 23 24 24 24 24 25 25 25 25 25 25 26 27 27 27 27 27 27 27 28 28 29 28 28 27 27 27 27 27 27 27 28 28
19 20 20 20 22 23 22 22 22 23 24 24 24 25 25 25 25 25 25 25 26 27 27 27 26 27 27 28 28 28 28 29 29 28 28 27 27 27 27 27 27 28 28 28
21 21 21 22 23 23 23 23 23 23 24 25 25 25 25 26 26 25 25 26 26 27 27 27 27 28 28 28 29 29 29 29 29 29 28 28 27 28 28 28 29 29 29 29
23 23 23 23 23 23 23 24 24 24 25 25 25 25 26 26 26 26 27 27 27 27 27 28 28 28 29 29 29 30 30 29 29 29 28 28 28 29 29 29 29 29 29 29
24 24 25 25 24 25 25 25 25 25 26 26 26 26 27 27 27 27 28 28 27 27 28 28 28 29 29 30 30 30 29 29 29 29 29 30 30 30 30 30 30 29 29 29
25 25 26 26 26 26 25 26 26 26 26 27 27 27 27 27 28 28 28 28 27 27 27 28 29 29 29 30 30 30 30 30 29 29 29 30 30 30 30 30 30 30 30 29
26 26 26 26 27 27 26 26 26 26 26 26 27 27 26 27 28 28 28 28 28 28 28 29 29 29 29 29 29 29 29 30 30 30 30 29 29 29 29 29 29 29 30 30
Wind_Direction
286 281 275 270 268 268 268 270 275 280 283 286 287 288 290 292 290 288 288 288 285 284 284 282 282 286 291 291 289 290 291 291 291 290 291 292 292 290 288 286 285 282 280 280
285 281 275 271 266 265 267 273 279 280 281 287 287 287 291 292 289 287 292 292 289 286 281 281 283 286 290 294 295 293 291 291 291 291 291 291 291 290 289 287 286 284 281 281
287 275 269 266 266 267 270 276 279 280 283 288 291 290 290 290 290 286 287 287 286 288 282 281 284 289 292 295 293 293 293 292 291 292 293 295 294 291 290 288 287 284 280 280
285 276 269 266 266 267 269 275 281 286 283 287 295 294 291 288 289 288 286 286 284 284 288 288 285 291 291 293 296 296 294 293 291 292 293 295 294 292 288 287 285 284 283 281
290 286 277 269 266 266 269 270 280 290 290 287 295 298 293 288 287 288 289 286 283 283 286 286 288 291 294 294 294 295 295 295 293 293 293 295 294 290 288 287 286 286 285 282
296 292 286 280 273 269 275 276 280 289 289 291 290 293 296 289 287 286 284 283 281 282 284 285 288 290 293 293 293 294 293 292 291 292 293 294 294 292 290 290 288 285 283 282
298 299 295 289 282 274 276 285 285 289 288 285 285 288 296 296 289 289 287 286 282 282 287 288 289 291 292 294 296 294 294 294 293 293 294 295 295 294 291 289 287 285 283 282
297 294 297 292 289 284 282 279 282 277 280 284 282 286 293 298 296 291 287 286 287 285 287 288 289 291 294 295 296 296 295 295 295 294 294 295 295 293 291 289 287 285 282 281
298 293 295 294 288 283 282 274 277 281 284 288 287 288 293 296 300 294 288 287 288 288 290 292 292 293 294 295 295 296 295 296 296 294 293 293 293 293 291 290 287 285 283 282
297 294 294 296 286 284 280 272 274 277 282 288 292 289 291 296 295 296 291 291 291 292 293 293 293 294 294 294 295 295 295 294 296 295 294 293 293 291 290 290 288 286 284 282
294 294 296 296 293 284 277 274 280 279 279 288 291 290 292 294 295 292 291 291 290 292 294 294 293 295 296 295 294 294 295 297 296 295 294 293 292 290 288 288 287 286 284 282
293 291 293 293 295 289 279 277 278 284 281 282 286 290 291 293 292 291 289 290 291 292 292 293 295 296 296 296 297 296 296 296 296 295 293 291 290 289 287 287 287 286 285 284
289 286 289 289 289 286 279 278 274 280 280 285 288 289 290 291 290 290 289 289 291 292 292 293 295 296 296 296 297 298 297 297 296 295 293 291 290 287 286 287 286 286 285 284
286 284 284 287 288 286 283 282 278 278 279 281 287 289 287 289 290 290 290 290 291 291 293 294 295 295 295 295 295 296 296 296 296 294 294 293 290 289 287 286 285 285 285 284
283 285 285 284 284 281 279 278 279 279 281 279 285 287 286 288 291 292 292 290 290 291 293 294 294 294 293 295 295 296 296 296 296 296 295 293 291 290 288 287 287 285 285 284
282 283 284 284 284 285 281 277 276 279 282 281 284 287 290 289 289 290 291 291 290 292 293 294 294 293 291 292 294 295 297 296 295 295 294 293 292 290 288 287 287 286 285 283
287 286 286 286 287 286 283 286 284 284 285 287 286 289 290 289 288 288 289 290 292 293 295 294 294 292 290 292 295 296 296 296 296 295 294 293 291 291 289 288 286 285 284 283
286 286 287 289 290 286 290 289 288 288 287 289 289 289 289 290 290 289 289 289 290 292 294 294 295 294 291 292 294 296 296 296 295 295 294 294 293 291 290 289 287 286 286 283
285 286 286 287 288 289 290 291 292 292 290 290 290 290 291 291 291 291 291 291 291 291 293 293 294 295 294 295 295 296 296 296 296 295 294 294 294 293 291 290 289 288 288 287
286 287 286 287 287 288 293 295 294 293 292 291 291 292 294 294 292 292 293 292 291 290 291 292 293 293 294 296 297 296 296 296 296 296 295 294 294 293 292 291 290 289 289 290
284 285 286 286 287 289 293 293 291 290 293 294 292 292 293 294 294 294 294 293 292 291 290 291 293 294 295 296 297 297 297 296 296 296 296 294 294 294 293 293 291 290 290 289
281 285 287 288 288 291 293 292 290 291 291 291 291 291 292 292 293 294 294 293 292 291 291 291 293 294 295 296 297 297 297 296 296 296 295 293 293 293 293 292 292 291 290 289
278 282 284 285 287 288 290 290 288 290 290 291 291 291 292 292 292 292 292 292 292 292 292 293 293 294 295 296 296 296 296 295 295 295 294 293 293 293 293 292 292 291 290 289
279 279 281 283 285 288 288 289 288 289 290 291 292 291 291 291 290 291 291 292 292 293 294 294 295 295 296 296 297 296 295 294 293 293 293 292 292 293 292 293 292 291 290 289
278 280 281 284 286 288 290 290 291 291 291 291 292 293 292 291 289 290 290 292 293 294 295 296 297 297 296 296 296 296 295 295 294 294 294 293 292 293 293 292 291 291 290 289
278 280 283 285 286 288 290 291 293 292 292 293 293 293 291 290 290 290 291 291 292 294 295 296 297 297 298 297 296 296 295 296 295 295 295 295 295 293 293 293 292 291 291 289
Height
5828 5829 5828 5829 5828 5829 5829 5829 5829 5830 5830 5829 5829 5829 5829 5829 5829 5829 5829 5828 5828 5828 5828 5827 5827 5827 5827 5826 5825 5825 5824 5823 5822 5821 5821 5820 5819 5818 5817 5817 5816 5816 5815 5815
5826 5826 5826 5826 5826 5826 5826 5827 5827 5827 5827 5827 5827 5827 5827 5827 5827 5827 5826 5826 5826 5826 5825 5825 5825 5824 5824 5823 5822 5822 5821 5820 5819 5818 5817 5816 5815 5814 5813 5812 5812 5811 5811 5811
5824 5824 5824 5824 5824 5824 5824 5825 5825 5825 5825 5824 5825 5825 5824 5824 5824 5824 5824 5823 5823 5823 5822 5822 5822 5822 5821 5820 5819 5819 5817 5816 5815 5814 5813 5812 5810 5809 5809 5808 5807 5807 5806 5806
5821 5822 5822 5822 5822 5822 5822 5822 5822 5822 5822 5822 5822 5822 5822 5822 5822 5821 5821 5821 5821 5820 5819 5819 5819 5819 5818 5817 5816 5815 5814 5813 5812 5810 5809 5807 5806 5805 5804 5803 5802 5802 5801 5801
5820 5820 5820 5820 5820 5820 5820 5820 5820 5820 5819 5819 5819 5819 5820 5819 5819 5819 5818 5818 5818 5817 5817 5816 5816 5816 5815 5814 5813 5811 5810 5809 5807 5806 5804 5802 5801 5799 5798 5798 5797 5797 5796 5796
5819 5818 5818 5818 5818 5818 5818 5819 5818 5818 5817 5817 5818 5817 5817 5816 5816 5815 5815 5814 5814 5814 5814 5813 5813 5812 5811 5810 5809 5807 5806 5804 5802 5801 5799 5797 5795 5794 5793 5792 5792 5791 5791 5791
5817 5816 5816 5816 5816 5816 5816 5817 5816 5815 5815 5816 5816 5814 5815 5813 5813 5812 5812 5811 5811 5811 5810 5810 5809 5809 5807 5805 5804 5803 5801 5799 5797 5795 5794 5792 5790 5789 5788 5787 5786 5786 5786 5785
5815 5815 5814 5814 5814 5814 5813 5814 5814 5815 5814 5814 5813 5812 5813 5811 5810 5810 5809 5809 5808 5808 5806 5806 5805 5804 5803 5801 5800 5798 5796 5794 5792 5790 5788 5786 5785 5783 5782 5781 5781 5780 5780 5780
5813 5813 5812 5811 5811 5811 5811 5811 5811 5811 5811 5811 5811 5810 5809 5808 5808 5807 5806 5805 5805 5804 5803 5801 5800 5799 5798 5796 5794 5793 5791 5789 5787 5785 5783 5781 5780 5778 5777 5776 5775 5775 5774 5774
5811 5810 5810 5809 5809 5809 5809 5809 5809 5808 5808 5808 5808 5807 5807 5805 5804 5803 5802 5801 5801 5800 5799 5798 5796 5795 5793 5791 5789 5788 5786 5783 5781 5779 5777 5776 5774 5773 5771 5770 5770 5769 5768 5768
5808 5808 5808 5807 5806 5806 5806 5806 5805 5805 5806 5805 5804 5806 5803 5802 5801 5799 5798 5797 5796 5796 5794 5793 5791 5790 5788 5786 5784 5782 5780 5777 5775 5773 5772 5770 5769 5767 5766 5765 5764 5763 5762 5762
5805 5805 5804 5804 5803 5803 5803 5802 5802 5802 5803 5802 5801 5803 5799 5798 5796 5795 5794 5793 5792 5791 5789 5788 5786 5785 5783 5781 5779 5777 5774 5772 5769 5767 5766 5764 5763 5761 5760 5759 5758 5757 5756 5756
5802 5802 5801 5801 5802 5800 5799 5799 5799 5799 5799 5798 5797 5799 5795 5793 5792 5790 5789 5789 5787 5786 5784 5783 5781 5779 5777 5775 5773 5771 5769 5766 5764 5762 5760 5758 5756 5755 5754 5753 5752 5751 5750 5749
5799 5798 5799 5799 5797 5797 5796 5795 5795 5795 5794 5793 5793 5792 5791 5788 5787 5786 5785 5784 5782 5781 5779 5777 5776 5774 5771 5769 5767 5765 5763 5761 5758 5756 5754 5752 5750 5749 5748 5747 5746 5745 5744 5743
5795 5795 5794 5794 5793 5793 5792 5791 5791 5790 5789 5789 5788 5787 5786 5784 5782 5781 5779 5778 5776 5775 5773 5772 5770 5768 5766 5763 5761 5759 5757 5754 5752 5750 5747 5746 5744 5742 5741 5740 5739 5738 5737 5736
5791 5791 5790 5789 5789 5788 5787 5787 5786 5785 5784 5784 5783 5782 5780 5779 5777 5776 5774 5772 5770 5769 5767 5765 5763 5761 5759 5757 5755 5753 5751 5748 5746 5744 5741 5739 5737 5736 5734 5733 5731 5730 5730 5729
5786 5786 5785 5784 5783 5782 5782 5782 5781 5780 5780 5779 5777 5777 5775 5773 5772 5770 5768 5766 5765 5763 5761 5759 5757 5755 5753 5751 5749 5746 5744 5742 5739 5737 5735 5733 5731 5729 5727 5725 5724 5723 5722 5721
5783 5781 5780 5780 5779 5777 5780 5777 5776 5775 5774 5772 5771 5770 5769 5767 5765 5764 5762 5760 5758 5756 5755 5752 5750 5747 5746 5744 5742 5740 5737 5735 5732 5730 5728 5726 5723 5721 5719 5718 5716 5715 5714 5713
5778 5777 5776 5775 5773 5772 5773 5772 5770 5769 5768 5767 5765 5763 5762 5761 5759 5757 5756 5754 5752 5750 5748 5746 5744 5741 5739 5737 5735 5733 5730 5728 5725 5723 5720 5718 5716 5714 5712 5710 5709 5707 5706 5705
5772 5772 5771 5770 5768 5767 5769 5767 5764 5764 5762 5760 5758 5757 5756 5754 5752 5751 5749 5747 5745 5744 5742 5740 5737 5735 5732 5730 5727 5725 5723 5720 5718 5715 5713 5710 5708 5706 5705 5703 5701 5699 5698 5697
5767 5766 5765 5764 5762 5762 5762 5760 5759 5758 5757 5754 5752 5750 5749 5747 5746 5744 5742 5740 5738 5737 5735 5733 5730 5728 5725 5723 5720 5717 5715 5712 5710 5708 5705 5703 5701 5699 5697 5695 5693 5692 5690 5688
5761 5761 5760 5758 5757 5758 5756 5754 5753 5752 5749 5747 5745 5744 5742 5740 5739 5737 5735 5733 5731 5729 5728 5725 5723 5721 5718 5715 5713 5710 5708 5705 5703 5700 5698 5696 5694 5692 5690 5687 5685 5683 5682 5680
5756 5756 5754 5754 5754 5752 5749 5747 5745 5744 5742 5740 5739 5737 5735 5733 5732 5730 5728 5726 5725 5722 5720 5718 5716 5713 5711 5708 5705 5702 5700 5697 5695 5693 5690 5688 5686 5684 5681 5679 5677 5675 5673 5672
5750 5748 5747 5747 5746 5745 5743 5741 5739 5737 5735 5734 5732 5730 5728 5726 5724 5723 5721 5719 5717 5715 5713 5710 5708 5705 5703 5700 5697 5694 5691 5689 5687 5685 5682 5680 5678 5675 5673 5671 5668 5667 5665 5663
5743 5741 5740 5739 5739 5737 5736 5734 5732 5730 5729 5727 5725 5723 5721 5719 5717 5715 5713 5711 5709 5707 5705 5702 5700 5697 5695 5692 5689 5686 5683 5681 5678 5676 5673 5671 5669 5667 5664 5662 5660 5658 5656 5654
5735 5734 5733 5733 5731 5730 5729 5727 5724 5723 5721 5719 5717 5716 5714 5711 5709 5708 5706 5704 5702 5699 5697 5695 5692 5689 5686 5683 5681 5678 5675 5673 5670 5668 5665 5662 5660 5658 5656 5654 5651 5648 5647 5645